User: anonymous   Login
Location: Astronight Observatory
(42.6003°N, 71.2981°W)
Time: 20:15:12
(UTC-04:00)
Language:

DELTA 2 R/B (1) - Orbit

View from above orbital plane
View from above orbital plane
View from above satellite
View from above satellite

Ground track
Ground track

The orbit data is extracted from the following two-line orbital elements,

1 27665U 03005C   15213.49524610 -.00000096  00000-0 -42286-5 0  9991
2 27665 039.5770 001.4629 0007356 138.1783 270.6477 14.28351909652865
Epoch (UTC): 01 August 2015 11:53:09
Eccentricity: 0.0007356
inclination: 39.5770°
perigee height: 792 km
apogee height: 802 km
right ascension of ascending node: 1.4629°
argument of perigee: 138.1783°
revolutions per day: 14.28351909
mean anomaly at epoch: 270.6477°
orbit number at epoch: 65286

The dashed part of the orbit path shows where the satellite is in the earth's shadow,  

DLR